Date,TemperatureHighF,TemperatureAvgF,TemperatureLowF,DewpointHighF,DewpointAvgF,DewpointLowF,HumidityHigh,HumidityAvg,HumidityLow,PressureMaxIn,PressureMinIn,WindSpeedMaxMPH,WindSpeedAvgMPH,GustSpeedMaxMPH,PrecipitationSumIn
2013-1-1,52,41,30,31,28,24,85,60,35,30.21,30.06,5,0,12,0.01
2013-1-2,60,45,33,31,27,24,75,54,26,30.09,29.95,4,0,9,0.00
2013-1-3,60,46,37,32,29,26,68,53,31,30.13,29.97,5,0,11,0.00
2013-1-4,57,46,36,31,29,27,74,55,33,30.24,30.13,4,0,11,0.00
2013-1-5,61,47,34,31,27,21,76,50,22,30.29,30.17,2,0,8,0.00
2013-1-6,65,51,41,26,21,17,45,32,17,30.18,29.92,4,0,11,0.00
2013-1-7,54,46,36,30,28,23,68,50,37,29.93,29.78,12,2,19,0.00
2013-1-8,60,47,34,31,28,25,75,50,27,30.09,29.87,5,1,11,0.00
2013-1-9,70,54,39,26,21,13,57,31,11,30.19,30.03,10,2,21,0.00
2013-1-10,66,58,47,37,23,18,56,26,19,30.05,29.80,6,2,21,0.00
2013-1-11,52,40,33,36,22,10,87,51,27,30.05,29.87,18,4,34,0.07
2013-1-12,43,36,29,16,12,4,55,38,19,30.05,29.92,6,1,13,0.00
2013-1-13,46,35,25,13,10,4,58,36,18,30.07,29.95,6,1,13,0.00
2013-1-14,42,33,25,13,9,3,55,38,22,30.16,29.98,12,2,20,0.00
2013-1-15,45,32,21,8,5,2,52,33,16,30.29,30.15,3,0,7,0.00
2013-1-16,60,42,29,16,10,4,40,27,14,30.32,30.17,3,0,9,0.00
2013-1-17,69,53,39,19,16,14,40,25,13,30.22,30.11,8,1,15,0.00
2013-1-18,74,56,42,23,20,16,40,25,12,30.22,30.09,4,0,11,0.00
2013-1-19,75,57,42,29,22,18,39,27,13,30.22,30.10,5,1,12,0.00
2013-1-20,77,59,46,36,28,23,43,31,20,30.15,30.01,6,1,13,0.00
2013-1-21,79,61,48,37,32,28,49,34,21,30.11,30.01,7,1,14,0.00
2013-1-22,80,63,49,37,33,29,54,34,17,30.18,30.08,5,0,14,0.00
2013-1-23,80,64,50,36,32,28,43,30,20,30.22,30.11,3,0,8,0.00
2013-1-24,66,61,57,54,43,32,81,54,35,30.25,30.15,2,0,7,0.04
2013-1-25,78,64,54,49,47,45,72,56,32,30.19,30.00,2,0,6,0.01
2013-1-26,68,61,55,56,52,46,95,73,49,30.00,29.92,9,2,22,0.93
2013-1-27,64,58,52,52,49,46,92,73,53,30.02,29.93,3,0,9,0.05
2013-1-28,56,50,44,49,39,28,86,67,50,29.99,29.91,13,5,22,0.03
2013-1-29,49,43,37,35,26,19,82,53,30,30.16,29.98,13,6,26,0.01
2013-1-30,57,45,35,28,25,21,68,47,24,30.31,30.16,8,1,16,0.00
2013-1-31,61,51,36,37,31,25,64,47,28,30.19,30.08,5,1,11,0.00
2013-2-1,71,54,40,34,30,24,63,42,17,30.21,30.11,7,1,13,0.00
2013-2-2,74,58,43,38,31,21,59,39,14,30.25,30.11,5,1,11,0.00
2013-2-3,70,60,54,39,34,28,56,38,24,30.14,29.96,6,1,13,0.00
2013-2-4,70,58,48,41,39,37,68,51,34,30.03,29.93,5,1,11,0.00
2013-2-5,73,58,46,43,38,33,76,51,25,30.03,29.91,3,-354,7,0.00
2013-2-6,69,59,48,40,36,31,68,45,25,30.03,29.92,0,-999,0,0.00
2013-2-7,69,57,43,37,32,26,72,42,24,30.11,29.95,0,-999,0,0.00
2013-2-8,66,58,48,33,23,12,45,27,12,29.95,29.79,0,-999,0,0.00
2013-2-9,51,44,35,35,26,20,85,51,30,30.00,29.78,0,-999,0,0.10
2013-2-10,56,45,33,25,20,14,69,40,20,30.01,29.91,0,-999,0,0.01
2013-2-11,49,40,34,34,27,19,90,63,33,30.12,29.93,0,-999,0,0.11
2013-2-12,50,40,30,33,28,23,91,66,36,30.23,30.10,0,-999,0,0.02
2013-2-13,59,45,31,27,24,16,78,47,19,30.18,30.06,0,-999,0,0.00
2013-2-14,65,50,34,29,24,20,66,40,19,30.14,30.01,0,-999,0,0.00
2013-2-15,71,55,41,29,24,11,58,33,14,30.24,30.11,0,-999,0,0.00
2013-2-16,73,59,41,20,10,4,36,18,7,30.24,30.00,0,-999,0,0.00
2013-2-17,72,62,50,20,11,4,23,14,7,30.00,29.85,0,-999,0,0.00
2013-2-18,67,57,46,22,15,8,30,19,10,30.05,29.91,0,-999,0,0.00
2013-2-19,69,60,48,28,14,7,39,17,10,29.93,29.71,0,-999,0,0.00
2013-2-20,50,40,32,36,31,28,91,73,44,29.91,29.70,0,-999,0,0.02
2013-2-21,51,41,32,35,31,28,91,69,44,30.02,29.91,0,-999,0,0.01
2013-2-22,54,44,33,35,30,21,89,60,35,30.12,29.96,0,-999,0,0.00
2013-2-23,63,50,34,26,23,16,70,38,16,30.12,29.83,0,-999,0,0.00
2013-2-24,52,46,40,29,15,3,64,31,15,30.04,29.78,0,-999,0,0.00
2013-2-25,57,45,33,21,14,7,47,29,19,30.17,30.01,0,-999,0,0.00
2013-2-26,61,48,33,22,17,10,59,31,15,30.05,29.93,0,-999,0,0.00
2013-2-27,77,49,34,36,13,3,53,26,9,30.17,30.05,3,-933,5,0.01
2013-2-28,65,51,37,17,14,10,42,24,13,30.29,30.16,10,3,20,0.01
2013-3-1,73,57,41,26,19,13,42,24,12,30.33,30.18,6,2,9,0.00
2013-3-2,80,64,47,30,25,16,46,25,9,30.29,30.11,6,2,10,0.00
2013-3-3,77,67,54,29,23,15,36,20,10,30.14,29.94,11,3,17,0.00
2013-3-4,70,65,57,33,26,15,40,24,15,30.08,29.89,13,5,24,0.00
2013-3-5,77,63,49,33,29,23,52,30,14,30.12,29.98,8,3,17,0.00
2013-3-6,78,67,57,33,29,21,39,26,15,30.05,29.90,7,3,15,0.00
2013-3-7,78,66,57,31,25,14,34,23,9,29.99,29.88,13,4,22,0.00
2013-3-8,64,57,45,48,37,28,73,50,26,29.96,29.78,14,5,37,0.08
2013-3-9,51,46,41,39,36,31,86,68,57,30.06,29.95,10,4,15,0.11
2013-3-10,63,53,44,40,35,27,80,53,26,30.14,30.04,10,4,22,0.01
2013-3-11,70,57,44,35,32,29,62,42,23,30.17,30.01,10,4,17,0.00
2013-3-12,78,62,45,38,31,23,60,35,14,30.10,30.00,8,3,13,0.00
2013-3-13,85,69,51,37,30,23,53,27,11,30.16,30.03,6,3,13,0.00
2013-3-14,89,74,56,33,24,12,33,18,6,30.15,30.03,7,3,15,0.00
2013-3-15,90,75,58,29,22,-2,29,15,3,30.08,29.93,14,4,24,0.00
2013-3-16,86,74,60,27,20,7,25,14,5,29.96,29.77,12,5,24,0.00
2013-3-17,81,71,61,25,21,13,23,15,8,29.94,29.84,14,6,24,0.00
2013-3-18,80,69,58,32,25,16,33,20,10,30.02,29.92,8,4,18,0.00
2013-3-19,77,68,58,34,29,25,35,24,16,30.06,29.95,10,4,19,0.00
2013-3-20,79,68,56,33,29,26,38,24,14,30.07,29.90,8,3,16,0.00
2013-3-21,75,68,60,34,31,28,35,26,19,29.90,29.75,8,3,14,0.00
2013-3-22,78,69,60,37,30,25,37,24,15,29.84,29.71,13,4,21,0.00
2013-3-23,72,64,55,39,21,-3,43,24,5,29.99,29.83,14,6,25,0.00
2013-3-24,73,62,49,15,6,-3,22,11,5,30.02,29.88,12,4,18,0.00
2013-3-25,78,66,50,18,13,8,25,13,9,30.03,29.91,10,4,18,0.00
2013-3-26,83,70,55,21,15,4,26,13,5,30.00,29.85,9,4,17,0.00
2013-3-27,82,72,59,23,17,7,22,13,8,30.02,29.91,9,4,20,0.00
2013-3-28,82,72,61,33,20,12,23,14,9,30.08,29.98,9,4,19,0.00
2013-3-29,83,72,61,34,20,8,26,15,7,30.12,30.01,10,3,18,0.00
2013-3-30,80,71,61,28,20,-100,20,15,8,30.09,29.96,9,3,23,0.00
2013-3-31,83,71,57,32,26,19,35,20,11,30.07,29.93,9,4,16,0.00
2013-4-1,80,70,58,36,29,18,35,23,14,30.03,29.90,11,5,24,0.00
2013-4-2,75,66,52,26,22,16,34,20,11,29.98,29.89,11,4,23,0.00
2013-4-3,79,68,55,29,26,23,30,21,14,30.06,29.96,9,4,18,0.00
2013-4-4,87,73,57,31,22,6,33,17,5,30.10,29.94,7,3,13,0.00
2013-4-5,84,74,64,31,27,21,24,18,11,30.01,29.88,9,4,20,0.00
2013-4-6,82,72,60,35,28,20,29,20,13,30.01,29.85,9,4,15,0.00
2013-4-7,83,73,60,39,31,24,40,24,12,29.92,29.77,8,4,16,0.00
2013-4-8,81,70,47,41,34,25,81,28,14,29.78,29.45,19,8,36,0.19
2013-4-9,63,55,46,45,32,22,91,47,21,29.88,29.59,13,5,21,0.22
2013-4-10,65,57,46,32,28,22,56,34,20,30.01,29.88,11,4,23,0.00
2013-4-11,77,63,48,32,27,21,53,28,13,30.01,29.79,11,3,17,0.00
2013-4-12,76,67,56,32,26,23,34,22,14,29.85,29.76,11,3,22,0.00
2013-4-13,82,70,55,29,24,18,36,20,10,29.89,29.75,9,4,19,0.00
2013-4-14,82,71,60,37,29,22,33,22,11,29.84,29.71,10,5,22,0.00
2013-4-15,84,72,62,38,31,23,38,24,11,29.83,29.73,13,6,24,0.00
2013-4-16,83,71,63,39,30,24,39,23,12,29.86,29.74,15,6,24,0.00
2013-4-17,65,60,54,41,25,7,55,29,12,30.01,29.80,13,7,24,0.00
2013-4-18,69,58,45,16,11,1,28,16,8,30.13,29.99,12,5,24,0.00
2013-4-19,78,63,45,15,5,-7,28,12,4,30.16,29.96,8,3,15,0.00
2013-4-20,82,69,51,18,10,4,20,11,6,30.00,29.91,10,4,20,0.00
2013-4-21,86,74,59,25,15,7,24,12,5,30.08,29.95,8,4,15,0.00
2013-4-22,89,77,62,31,16,-2,23,11,3,30.01,29.82,10,4,17,0.00
2013-4-23,86,76,65,27,20,14,19,12,7,29.91,29.82,9,4,22,0.00
2013-4-24,88,76,65,30,23,12,24,15,6,29.96,29.85,9,4,19,0.00
2013-4-25,82,74,66,31,26,11,25,17,7,30.05,29.90,14,6,26,0.00
2013-4-26,84,71,53,31,27,22,38,20,12,30.14,30.02,10,4,21,0.00
2013-4-27,88,76,58,30,24,11,30,16,6,30.10,29.93,9,4,17,0.00
2013-4-28,92,79,62,28,16,5,24,11,4,29.96,29.80,11,3,18,0.00
2013-4-29,94,81,65,25,14,6,18,9,4,29.88,29.72,9,4,19,0.00
2013-4-30,93,82,67,23,16,7,17,9,4,29.85,29.74,11,4,20,0.00
2013-5-1,88,78,67,26,20,3,19,12,4,30.02,29.85,10,4,16,0.00
2013-5-2,89,78,63,31,18,8,26,11,5,30.14,30.01,10,4,21,0.00
2013-5-3,85,74,65,19,14,7,17,11,5,30.05,29.83,18,7,30,0.00
2013-5-4,90,77,61,27,18,7,21,11,5,29.88,29.74,10,4,23,0.00
2013-5-5,87,77,68,37,27,19,29,17,8,29.98,29.80,12,5,22,0.00
2013-5-6,82,70,60,50,39,31,70,35,16,30.01,29.91,9,4,22,0.02
2013-5-7,81,70,61,44,36,19,45,31,10,30.03,29.89,11,5,20,0.00
2013-5-8,78,67,56,43,38,29,53,36,19,30.06,29.93,8,3,15,0.00
2013-5-9,81,71,58,42,34,15,52,29,9,30.03,29.91,8,4,16,0.00
2013-5-10,85,71,59,41,32,-100,47,27,14,30.09,29.96,11,3,17,0.00
2013-5-11,85,74,62,39,34,-100,38,24,14,30.12,30.03,14,6,25,0.00
2013-5-12,89,80,70,38,33,27,28,19,11,30.18,29.99,13,7,22,0.00
2013-5-13,93,82,67,34,26,15,27,14,7,30.11,29.96,11,6,26,0.00
2013-5-14,94,84,71,39,30,15,28,16,8,30.03,29.88,8,4,21,0.00
2013-5-15,95,83,70,37,32,26,27,17,9,30.05,29.88,13,6,24,0.00
2013-5-16,95,79,69,32,13,-100,23,13,5,29.98,29.81,9,4,19,0.00
2013-5-17,92,80,70,37,24,-100,27,15,7,29.95,29.85,11,5,22,0.00
2013-5-18,88,78,67,35,27,18,25,16,8,29.98,29.87,10,4,21,0.00
2013-5-19,88,78,64,45,36,21,45,25,9,29.97,29.82,10,4,22,0.00
2013-5-20,88,79,65,41,30,18,37,19,9,29.94,29.84,14,6,27,0.00
2013-5-21,92,80,64,30,17,6,23,11,4,29.96,29.81,6,3,17,0.00
2013-5-22,96,83,69,32,21,9,19,11,5,29.88,29.73,10,4,17,0.00
2013-5-23,95,84,71,34,27,8,26,14,4,29.91,29.80,10,4,17,0.00
2013-5-24,96,82,69,43,28,2,35,17,3,29.98,29.87,9,4,17,0.00
2013-5-25,95,82,68,39,25,1,31,15,3,30.00,29.89,10,4,16,0.00
2013-5-26,93,80,67,31,16,-8,24,11,2,30.02,29.90,11,4,19,0.00
2013-5-27,94,80,65,27,15,-9,19,10,2,29.95,29.77,11,4,20,0.00
2013-5-28,92,80,63,34,24,11,26,14,5,29.82,29.66,11,5,20,0.00
2013-5-29,90,80,67,50,35,28,36,21,11,29.82,29.70,9,4,20,0.00
2013-5-30,92,79,71,52,46,36,48,33,14,29.90,29.80,9,3,17,0.00
2013-6-4,91,87,84,37,33,27,17,15,10,29.69,29.62,6,5,12,0.00
2013-6-5,97,86,71,37,24,8,25,12,4,29.74,29.60,8,3,17,0.00
2013-6-6,100,88,71,32,26,18,22,11,7,29.90,29.56,7,4,17,0.00
2013-6-7,102,89,73,36,30,25,23,13,7,29.88,29.71,10,4,18,0.00
2013-6-8,100,93,79,39,28,21,19,10,6,29.92,29.81,12,7,24,0.00
2013-6-9,100,90,73,39,29,18,29,13,6,29.97,29.84,11,6,22,0.00
2013-6-10,103,90,72,39,31,23,25,13,6,29.98,29.83,9,5,19,0.00
2013-6-11,104,92,76,36,28,18,21,11,5,29.96,29.83,10,5,23,0.00
2013-6-12,103,92,79,37,33,29,21,13,8,30.00,29.86,11,6,22,0.00
2013-6-13,100,90,77,50,43,35,32,21,13,30.01,29.84,11,6,20,0.00
2013-6-14,99,90,79,55,50,41,42,27,17,29.97,29.80,11,5,21,0.00
2013-6-15,98,89,79,57,50,44,37,27,18,30.00,29.86,10,4,21,0.00
2013-6-16,101,90,77,53,44,30,39,23,11,30.02,29.88,10,4,22,0.00
2013-6-17,101,90,74,36,32,26,23,13,9,30.01,29.86,9,4,17,0.00
2013-6-18,103,89,72,36,22,-3,24,11,2,29.96,29.80,10,3,16,0.00
2013-6-19,102,90,73,33,22,7,15,9,4,29.88,29.75,9,4,21,0.00
2013-6-20,102,85,75,36,30,13,23,15,4,29.92,29.83,9,3,20,0.00
2013-6-21,101,100,97,22,21,19,6,6,6,29.90,29.83,8,6,15,0.00
2013-6-22,101,94,77,35,25,17,18,9,5,29.96,29.80,10,6,19,0.00
2013-6-23,100,88,76,38,29,14,19,13,5,29.92,29.77,10,5,22,0.00
2013-6-24,99,88,75,40,32,21,25,14,6,29.95,29.83,10,5,21,0.00
2013-6-25,99,88,75,44,30,18,33,15,6,30.02,29.91,8,4,14,0.00
2013-6-26,99,89,75,36,27,20,19,12,6,30.11,29.97,10,5,18,0.00
2013-6-27,102,90,77,44,35,26,27,15,11,30.14,29.95,12,5,23,0.00
2013-6-28,106,93,77,41,37,33,23,15,10,30.02,29.86,10,3,17,0.00
2013-6-29,108,98,84,47,41,36,21,15,10,29.95,29.79,15,4,26,0.00
2013-6-30,107,95,81,59,50,45,47,24,13,30.02,29.74,13,6,23,0.00
2013-7-1,103,88,78,67,57,51,56,36,19,30.00,29.86,12,3,24,0.02
2013-7-2,98,87,69,65,58,51,87,40,24,30.14,29.90,13,5,23,0.25
2013-7-3,101,90,75,56,52,47,50,29,19,30.00,29.77,9,5,19,0.01
2013-7-4,101,92,80,60,55,48,48,30,20,29.93,29.76,11,5,20,0.00
2013-7-5,96,85,75,69,61,56,80,48,31,29.94,29.77,10,4,18,0.02
2013-7-6,102,87,75,64,60,56,62,42,23,29.94,29.78,9,3,17,0.01
2013-7-7,105,89,79,63,59,54,54,38,21,29.92,29.78,11,3,19,0.00
2013-7-8,102,90,83,61,56,-100,44,33,22,29.99,29.88,12,3,22,0.00
2013-7-9,95,87,75,71,64,58,87,49,34,30.11,29.93,12,6,26,0.04
2013-7-10,96,81,72,69,64,-100,87,59,35,30.10,29.94,7,3,16,0.05
2013-7-11,93,81,71,71,67,62,92,64,41,30.09,29.96,12,4,21,0.08
2013-7-12,92,82,72,70,65,60,91,58,34,30.08,29.92,11,3,18,0.06
2013-7-13,96,86,76,66,63,59,69,47,31,30.06,29.90,11,5,21,0.06
2013-7-14,99,90,81,64,61,58,55,39,28,30.02,29.85,12,5,21,0.00
2013-7-15,100,88,78,69,62,58,71,44,26,29.94,29.78,9,4,21,0.05
2013-7-16,86,80,75,68,64,62,73,60,45,30.11,29.94,7,3,13,0.05
2013-7-17,96,85,74,67,60,53,78,47,26,30.12,29.98,12,4,23,0.01
2013-7-18,95,86,79,60,55,51,43,35,27,30.05,29.90,12,8,25,0.00
2013-7-19,93,83,76,66,60,54,63,47,33,30.03,29.88,9,3,16,0.00
2013-7-20,92,78,73,68,64,-100,81,65,42,30.00,29.85,9,4,17,0.00
2013-7-21,91,81,74,68,66,61,82,62,38,30.04,29.94,10,4,18,0.00
2013-7-22,91,81,72,69,65,61,85,61,39,30.09,29.98,8,4,21,0.00
2013-7-23,93,86,75,64,61,58,65,45,33,30.09,29.93,10,5,21,0.00
2013-7-24,89,82,75,72,64,59,86,56,43,30.03,29.93,6,2,18,0.05
2013-7-25,91,80,74,72,68,65,89,67,44,30.12,30.01,8,2,16,0.17
2013-7-26,93,80,74,71,67,64,85,67,40,30.19,30.09,13,2,22,0.02
2013-7-27,94,83,75,68,65,62,76,56,36,30.14,29.94,8,3,14,0.01
2013-7-28,100,88,76,65,57,45,66,38,21,29.98,29.85,9,3,18,0.00
2013-7-29,98,88,77,51,48,44,34,26,19,30.08,29.96,7,3,17,0.00
2013-7-30,101,90,78,56,53,50,43,29,20,30.17,30.03,10,5,19,0.00
2013-7-31,100,90,82,59,55,52,44,32,21,30.11,29.98,8,2,16,0.00
2013-8-1,89,85,81,63,59,55,49,42,36,30.05,29.98,9,3,18,0.00
2013-8-2,93,84,79,67,62,58,64,48,37,30.06,29.98,7,3,14,0.01
2013-8-3,99,86,72,63,58,54,69,41,24,30.09,29.96,6,3,13,0.01
2013-8-4,95,86,81,62,59,53,50,40,27,30.09,29.97,6,2,11,0.00
2013-8-5,93,82,71,65,58,52,81,45,27,30.12,29.96,12,5,24,0.04
2013-8-6,82,75,68,68,64,59,95,70,48,30.12,30.04,11,3,25,0.05
2013-8-7,93,81,68,64,57,50,81,50,24,30.15,30.01,9,3,17,0.01
2013-8-8,99,84,72,56,47,33,53,30,12,30.05,29.91,7,3,14,0.00
2013-8-9,100,88,70,48,42,35,34,21,13,30.01,29.89,8,3,21,0.00
2013-8-10,99,88,75,45,40,34,30,19,14,30.08,29.93,8,4,15,0.00
2013-8-11,99,87,74,59,51,35,43,30,17,30.06,29.89,14,3,24,0.00
2013-10-18,79,65,51,28,25,20,33,22,15,30.14,30.04,9,3,16,0.00
2013-10-19,84,66,53,26,19,-100,31,19,9,30.16,30.03,8,3,15,0.00
2013-10-20,81,69,52,23,19,16,25,15,11,30.09,29.95,7,3,15,0.00
2013-10-21,82,68,55,23,20,18,25,17,10,30.11,30.03,8,3,18,0.00
2013-10-22,87,72,55,30,21,17,26,16,8,30.15,30.00,6,2,13,0.00
2013-10-23,89,75,62,34,29,23,28,18,12,30.05,29.93,6,3,11,0.00
2013-10-24,88,76,63,35,29,25,25,18,13,30.06,29.95,8,4,14,0.00
2013-10-25,83,72,58,35,31,28,35,22,16,30.16,30.07,8,3,16,0.00
2013-10-26,84,68,56,33,28,-100,36,24,15,30.22,30.09,6,2,9,0.00
2013-10-27,86,75,63,37,31,27,35,21,13,30.12,29.88,6,3,13,0.00
2013-10-28,79,68,63,39,31,-100,36,27,14,30.03,29.91,10,3,20,0.00
2013-10-29,80,70,58,40,36,32,51,30,18,30.04,29.94,13,6,22,0.00
2013-10-30,66,58,51,40,35,23,62,44,30,30.16,29.99,11,4,18,0.00